Time,TemperatureF,DewpointF,PressureIn,WindDirection,WindDirectionDegrees,WindSpeedMPH,WindSpeedGustMPH,Humidity,HourlyPrecipIn,Conditions,Clouds,dailyrainin,SoftwareType,DateUTC
2013-01-19 00:02:00,43.2,32.2,30.09,SSW,212,10.0,10.0,65,0.00,,,0.00,Wunderground v.1.15,2013-01-19 06:02:00,
2013-01-19 00:07:00,43.1,32.1,30.09,SSW,202,10.0,11.0,65,0.00,,,0.00,Wunderground v.1.15,2013-01-19 06:07:00,
2013-01-19 00:13:00,42.8,32.2,30.08,SW,219,9.0,12.0,66,0.00,,,0.00,Wunderground v.1.15,2013-01-19 06:13:00,
2013-01-19 00:19:00,42.4,31.8,30.08,SSW,207,9.0,12.0,66,0.00,,,0.00,Wunderground v.1.15,2013-01-19 06:19:00,
2013-01-19 00:24:00,42.2,32.0,30.08,SSW,210,9.0,9.0,67,0.00,,,0.00,Wunderground v.1.15,2013-01-19 06:24:00,
2013-01-19 00:30:00,42.0,31.8,30.08,SSW,200,9.0,9.0,67,0.00,,,0.00,Wunderground v.1.15,2013-01-19 06:30:00,
2013-01-19 00:35:00,41.9,31.7,30.08,SW,214,9.0,13.0,67,0.00,,,0.00,Wunderground v.1.15,2013-01-19 06:35:00,
2013-01-19 00:41:00,41.8,32.0,30.08,SSW,204,9.0,11.0,68,0.00,,,0.00,Wunderground v.1.15,2013-01-19 06:41:00,
2013-01-19 00:47:00,41.6,31.8,30.08,SSW,198,8.0,11.0,68,0.00,,,0.00,Wunderground v.1.15,2013-01-19 06:47:00,
2013-01-19 00:52:00,41.7,31.9,30.08,SW,215,9.0,11.0,68,0.00,,,0.00,Wunderground v.1.15,2013-01-19 06:52:00,
2013-01-19 00:58:00,41.6,31.8,30.08,SW,226,9.0,11.0,68,0.00,,,0.00,Wunderground v.1.15,2013-01-19 06:58:00,
2013-01-19 01:04:00,41.5,31.7,30.08,SSW,212,9.0,10.0,68,0.00,,,0.00,Wunderground v.1.15,2013-01-19 07:04:00,
2013-01-19 01:09:00,41.5,31.7,30.08,SSW,207,9.0,10.0,68,0.00,,,0.00,Wunderground v.1.15,2013-01-19 07:09:00,
2013-01-19 01:15:00,41.3,31.5,30.08,SSW,196,8.0,9.0,68,0.00,,,0.00,Wunderground v.1.15,2013-01-19 07:15:00,
2013-01-19 01:21:00,41.4,31.6,30.08,SW,218,8.0,11.0,68,0.00,,,0.00,Wunderground v.1.15,2013-01-19 07:21:00,
2013-01-19 01:26:00,41.4,31.6,30.08,SSW,209,9.0,11.0,68,0.00,,,0.00,Wunderground v.1.15,2013-01-19 07:26:00,
2013-01-19 01:32:00,41.3,31.5,30.07,SSW,201,9.0,10.0,68,0.00,,,0.00,Wunderground v.1.15,2013-01-19 07:32:00,
2013-01-19 01:39:00,41.0,31.6,30.07,SSW,200,10.0,14.0,69,0.00,,,0.00,Wunderground v.1.15,2013-01-19 07:39:00,
2013-01-19 01:45:00,40.8,31.4,30.07,SSW,199,10.0,11.0,69,0.00,,,0.00,Wunderground v.1.15,2013-01-19 07:45:00,
2013-01-19 01:50:00,40.6,31.6,30.08,SW,222,9.0,9.0,70,0.00,,,0.00,Wunderground v.1.15,2013-01-19 07:50:00,
2013-01-19 01:56:00,40.6,31.6,30.08,SW,236,9.0,10.0,70,0.00,,,0.00,Wunderground v.1.15,2013-01-19 07:56:00,
2013-01-19 02:01:00,40.5,31.5,30.08,SW,214,8.0,9.0,70,0.00,,,0.00,Wunderground v.1.15,2013-01-19 08:01:00,
2013-01-19 02:06:00,40.3,31.3,30.08,SW,231,8.0,10.0,70,0.00,,,0.00,Wunderground v.1.15,2013-01-19 08:06:00,
2013-01-19 02:12:00,40.3,31.3,30.08,SW,221,8.0,11.0,70,0.00,,,0.00,Wunderground v.1.15,2013-01-19 08:12:00,
2013-01-19 02:17:00,40.1,31.1,30.08,SW,215,8.0,11.0,70,0.00,,,0.00,Wunderground v.1.15,2013-01-19 08:17:00,
2013-01-19 02:22:00,40.1,31.1,30.08,SSW,209,8.0,8.0,70,0.00,,,0.00,Wunderground v.1.15,2013-01-19 08:22:00,
2013-01-19 02:28:00,39.7,31.1,30.08,SSW,210,8.0,9.0,71,0.00,,,0.00,Wunderground v.1.15,2013-01-19 08:28:00,
2013-01-19 02:33:00,39.4,30.8,30.08,SW,217,7.0,7.0,71,0.00,,,0.00,Wunderground v.1.15,2013-01-19 08:33:00,
2013-01-19 02:39:00,39.0,30.7,30.08,SSW,210,7.0,7.0,72,0.00,,,0.00,Wunderground v.1.15,2013-01-19 08:39:00,
2013-01-19 02:44:00,38.7,30.8,30.08,SSW,205,7.0,9.0,73,0.00,,,0.00,Wunderground v.1.15,2013-01-19 08:44:00,
2013-01-19 02:50:00,38.3,30.7,30.08,SSW,200,7.0,8.0,74,0.00,,,0.00,Wunderground v.1.15,2013-01-19 08:50:00,
2013-01-19 02:55:00,38.1,30.5,30.08,SSW,203,7.0,8.0,74,0.00,,,0.00,Wunderground v.1.15,2013-01-19 08:55:00,
2013-01-19 03:01:00,37.7,30.5,30.07,SW,215,6.0,7.0,75,0.00,,,0.00,Wunderground v.1.15,2013-01-19 09:01:00,
2013-01-19 03:06:00,37.8,30.6,30.07,SSW,202,6.0,7.0,75,0.00,,,0.00,Wunderground v.1.15,2013-01-19 09:06:00,
2013-01-19 03:12:00,37.9,30.7,30.07,SSW,205,6.0,8.0,75,0.00,,,0.00,Wunderground v.1.15,2013-01-19 09:12:00,
2013-01-19 03:18:00,37.8,30.6,30.07,SSW,194,7.0,8.0,75,0.00,,,0.00,Wunderground v.1.15,2013-01-19 09:18:00,
2013-01-19 03:23:00,37.8,30.6,30.07,SSW,205,7.0,8.0,75,0.00,,,0.00,Wunderground v.1.15,2013-01-19 09:23:00,
2013-01-19 03:29:00,37.5,30.3,30.07,SSW,195,6.0,8.0,75,0.00,,,0.00,Wunderground v.1.15,2013-01-19 09:29:00,
2013-01-19 03:35:00,37.4,30.2,30.07,SSW,202,6.0,7.0,75,0.00,,,0.00,Wunderground v.1.15,2013-01-19 09:35:00,
2013-01-19 03:40:00,37.4,30.2,30.07,SSW,196,6.0,6.0,75,0.00,,,0.00,Wunderground v.1.15,2013-01-19 09:40:00,
2013-01-19 03:46:00,37.3,30.4,30.07,SSW,196,6.0,8.0,76,0.00,,,0.00,Wunderground v.1.15,2013-01-19 09:46:00,
2013-01-19 03:52:00,37.3,30.4,30.07,SSW,194,6.0,7.0,76,0.00,,,0.00,Wunderground v.1.15,2013-01-19 09:52:00,
2013-01-19 03:57:00,37.1,30.2,30.06,SSW,193,6.0,7.0,76,0.00,,,0.00,Wunderground v.1.15,2013-01-19 09:57:00,
2013-01-19 04:02:00,36.9,30.0,30.06,SSW,193,7.0,7.0,76,0.00,,,0.00,Wunderground v.1.15,2013-01-19 10:02:00,
2013-01-19 04:07:00,37.0,30.5,30.06,South,180,7.0,10.0,77,0.00,,,0.00,Wunderground v.1.15,2013-01-19 10:07:00,
2013-01-19 04:13:00,37.0,30.5,30.06,South,186,8.0,8.0,77,0.00,,,0.00,Wunderground v.1.15,2013-01-19 10:13:00,
2013-01-19 04:19:00,36.9,30.4,30.06,South,189,8.0,10.0,77,0.00,,,0.00,Wunderground v.1.15,2013-01-19 10:19:00,
2013-01-19 04:24:00,36.6,30.1,30.06,SSW,201,8.0,8.0,77,0.00,,,0.00,Wunderground v.1.15,2013-01-19 10:24:00,
2013-01-19 04:30:00,36.4,29.9,30.05,SSW,200,8.0,8.0,77,0.00,,,0.00,Wunderground v.1.15,2013-01-19 10:30:00,
2013-01-19 04:35:00,36.4,30.2,30.05,South,186,8.0,10.0,78,0.00,,,0.00,Wunderground v.1.15,2013-01-19 10:35:00,
2013-01-19 04:41:00,36.2,30.0,30.05,South,186,8.0,10.0,78,0.00,,,0.00,Wunderground v.1.15,2013-01-19 10:41:00,
2013-01-19 04:47:00,35.9,29.7,30.06,SSW,194,7.0,10.0,78,0.00,,,0.00,Wunderground v.1.15,2013-01-19 10:47:00,
2013-01-19 04:52:00,35.6,29.7,30.06,SSW,201,7.0,8.0,79,0.00,,,0.00,Wunderground v.1.15,2013-01-19 10:52:00,
2013-01-19 04:58:00,35.5,29.6,30.06,South,181,7.0,8.0,79,0.00,,,0.00,Wunderground v.1.15,2013-01-19 10:58:00,
2013-01-19 05:03:00,35.4,29.5,30.06,SSW,202,7.0,7.0,79,0.00,,,0.00,Wunderground v.1.15,2013-01-19 11:03:00,
2013-01-19 05:09:00,35.3,29.4,30.06,SSW,194,6.0,7.0,79,0.00,,,0.00,Wunderground v.1.15,2013-01-19 11:09:00,
2013-01-19 05:14:00,35.2,29.3,30.06,SSW,198,6.0,7.0,79,0.00,,,0.00,Wunderground v.1.15,2013-01-19 11:14:00,
2013-01-19 06:47:00,33.4,28.5,30.09,SW,220,0.0,2.0,82,0.00,,,0.00,Wunderground v.1.15,2013-01-19 12:47:00,
2013-01-19 06:48:00,33.4,28.8,30.09,SW,220,0.0,2.0,83,0.00,,,0.00,Wunderground v.1.15,2013-01-19 12:48:00,
2013-01-19 06:50:00,33.3,28.7,30.09,SW,220,0.0,1.0,83,0.00,,,0.00,Wunderground v.1.15,2013-01-19 12:50:00,
2013-01-19 06:53:00,33.2,28.6,30.09,SW,220,1.0,2.0,83,0.00,,,0.00,Wunderground v.1.15,2013-01-19 12:53:00,
2013-01-19 06:58:00,32.0,27.1,30.08,SW,219,3.0,6.0,82,0.00,,,0.00,Wunderground v.1.15,2013-01-19 12:58:00,
2013-01-19 07:04:00,31.6,27.6,30.08,SW,219,4.0,5.0,85,0.00,,,0.00,Wunderground v.1.15,2013-01-19 13:04:00,
2013-01-19 07:10:00,31.9,28.2,30.08,SSW,202,5.0,8.0,86,0.00,,,0.00,Wunderground v.1.15,2013-01-19 13:10:00,
2013-01-19 07:15:00,32.4,28.4,30.07,SSW,205,8.0,11.0,85,0.00,,,0.00,Wunderground v.1.15,2013-01-19 13:15:00,
2013-01-19 07:21:00,33.2,29.2,30.08,SW,217,9.0,9.0,85,0.00,,,0.00,Wunderground v.1.15,2013-01-19 13:21:00,
2013-01-19 07:26:00,33.4,29.1,30.08,SW,215,7.0,9.0,84,0.00,,,0.00,Wunderground v.1.15,2013-01-19 13:26:00,
2013-01-19 07:32:00,33.2,28.6,30.08,SW,217,5.0,6.0,83,0.00,,,0.00,Wunderground v.1.15,2013-01-19 13:32:00,
2013-01-19 07:38:00,32.7,28.4,30.09,SW,224,7.0,9.0,84,0.00,,,0.00,Wunderground v.1.15,2013-01-19 13:38:00,
2013-01-19 07:44:00,33.0,29.0,30.08,SW,220,8.0,9.0,85,0.00,,,0.00,Wunderground v.1.15,2013-01-19 13:44:00,
2013-01-19 07:49:00,33.2,28.9,30.08,SW,228,8.0,11.0,84,0.00,,,0.00,Wunderground v.1.15,2013-01-19 13:49:00,
2013-01-19 07:54:00,33.0,28.7,30.09,SSW,207,7.0,9.0,84,0.00,,,0.00,Wunderground v.1.15,2013-01-19 13:54:00,
2013-01-19 08:00:00,32.7,28.4,30.09,SW,222,6.0,6.0,84,0.00,,,0.00,Wunderground v.1.15,2013-01-19 14:00:00,
2013-01-19 08:05:00,32.5,28.5,30.10,SW,224,5.0,6.0,85,0.00,,,0.00,Wunderground v.1.15,2013-01-19 14:05:00,
2013-01-19 08:11:00,32.4,28.4,30.09,SW,222,5.0,7.0,85,0.00,,,0.00,Wunderground v.1.15,2013-01-19 14:11:00,
2013-01-19 08:16:00,32.5,28.5,30.09,SSW,211,6.0,9.0,85,0.00,,,0.00,Wunderground v.1.15,2013-01-19 14:16:00,
2013-01-19 08:21:00,32.6,28.6,30.09,SSW,202,7.0,8.0,85,0.00,,,0.00,Wunderground v.1.15,2013-01-19 14:21:00,
2013-01-19 08:26:00,32.7,28.7,30.09,SSW,199,7.0,9.0,85,0.00,,,0.00,Wunderground v.1.15,2013-01-19 14:26:00,
2013-01-19 08:32:00,33.0,29.0,30.09,SW,215,7.0,7.0,85,0.00,,,0.00,Wunderground v.1.15,2013-01-19 14:32:00,
2013-01-19 08:37:00,33.7,29.7,30.09,SSW,211,7.0,7.0,85,0.00,,,0.00,Wunderground v.1.15,2013-01-19 14:37:00,
2013-01-19 08:42:00,34.3,30.0,30.08,SSW,198,6.0,10.0,84,0.00,,,0.00,Wunderground v.1.15,2013-01-19 14:42:00,
2013-01-19 08:48:00,34.8,30.2,30.09,SSW,205,8.0,10.0,83,0.00,,,0.00,Wunderground v.1.15,2013-01-19 14:48:00,
2013-01-19 08:53:00,35.6,30.9,30.09,SW,225,7.0,9.0,83,0.00,,,0.00,Wunderground v.1.15,2013-01-19 14:53:00,
2013-01-19 08:59:00,36.4,31.1,30.10,SW,223,7.0,9.0,81,0.00,,,0.00,Wunderground v.1.15,2013-01-19 14:59:00,
2013-01-19 09:05:00,36.9,31.6,30.12,WSW,254,6.0,9.0,81,0.00,,,0.00,Wunderground v.1.15,2013-01-19 15:05:00,
2013-01-19 09:10:00,37.5,31.9,30.12,WSW,252,6.0,6.0,80,0.00,,,0.00,Wunderground v.1.15,2013-01-19 15:10:00,
2013-01-19 09:15:00,38.2,32.6,30.12,WSW,250,6.0,10.0,80,0.00,,,0.00,Wunderground v.1.15,2013-01-19 15:15:00,
2013-01-19 09:20:00,38.7,32.7,30.12,WSW,252,6.0,6.0,79,0.00,,,0.00,Wunderground v.1.15,2013-01-19 15:20:00,
2013-01-19 09:26:00,39.2,32.9,30.12,WSW,250,6.0,7.0,78,0.00,,,0.00,Wunderground v.1.15,2013-01-19 15:26:00,
2013-01-19 09:31:00,39.7,33.1,30.12,WSW,243,6.0,6.0,77,0.00,,,0.00,Wunderground v.1.15,2013-01-19 15:31:00,
2013-01-19 09:37:00,40.3,33.3,30.13,West,276,6.0,8.0,76,0.00,,,0.00,Wunderground v.1.15,2013-01-19 15:37:00,
2013-01-19 09:42:00,40.6,33.3,30.13,WSW,251,6.0,9.0,75,0.00,,,0.00,Wunderground v.1.15,2013-01-19 15:42:00,
2013-01-19 09:48:00,41.2,33.9,30.14,West,266,6.0,9.0,75,0.00,,,0.00,Wunderground v.1.15,2013-01-19 15:48:00,
2013-01-19 09:53:00,41.8,34.1,30.14,SW,235,6.0,8.0,74,0.00,,,0.00,Wunderground v.1.15,2013-01-19 15:53:00,
2013-01-19 09:58:00,42.4,34.0,30.14,WSW,255,6.0,8.0,72,0.00,,,0.00,Wunderground v.1.15,2013-01-19 15:58:00,
2013-01-19 10:03:00,42.9,34.1,30.14,WSW,257,7.0,8.0,71,0.00,,,0.00,Wunderground v.1.15,2013-01-19 16:03:00,
2013-01-19 10:08:00,43.5,34.0,30.14,WSW,240,6.0,8.0,69,0.00,,,0.00,Wunderground v.1.15,2013-01-19 16:08:00,
2013-01-19 10:14:00,44.1,33.8,30.15,West,269,6.0,8.0,67,0.00,,,0.00,Wunderground v.1.15,2013-01-19 16:14:00,
2013-01-19 10:19:00,44.5,34.2,30.15,WSW,255,7.0,8.0,67,0.00,,,0.00,Wunderground v.1.15,2013-01-19 16:19:00,
2013-01-19 10:25:00,44.9,34.2,30.15,West,268,6.0,7.0,66,0.00,,,0.00,Wunderground v.1.15,2013-01-19 16:25:00,
2013-01-19 10:31:00,45.3,34.2,30.15,WSW,248,6.0,6.0,65,0.00,,,0.00,Wunderground v.1.15,2013-01-19 16:31:00,
2013-01-19 10:36:00,45.8,34.3,30.15,WSW,240,5.0,6.0,64,0.00,,,0.00,Wunderground v.1.15,2013-01-19 16:36:00,
2013-01-19 10:42:00,46.3,33.6,30.15,West,275,4.0,5.0,61,0.00,,,0.00,Wunderground v.1.15,2013-01-19 16:42:00,
2013-01-19 10:47:00,47.0,33.8,30.15,West,272,4.0,6.0,60,0.00,,,0.00,Wunderground v.1.15,2013-01-19 16:47:00,
2013-01-19 10:53:00,47.4,31.6,30.15,NW,311,4.0,4.0,54,0.00,,,0.00,Wunderground v.1.15,2013-01-19 16:53:00,
2013-01-19 10:59:00,47.9,31.6,30.15,NW,313,3.0,4.0,53,0.00,,,0.00,Wunderground v.1.15,2013-01-19 16:59:00,
2013-01-19 11:04:00,48.3,32.4,30.15,NW,313,3.0,5.0,54,0.00,,,0.00,Wunderground v.1.15,2013-01-19 17:04:00,
2013-01-19 11:09:00,48.7,32.8,30.15,NW,316,3.0,5.0,54,0.00,,,0.00,Wunderground v.1.15,2013-01-19 17:09:00,
2013-01-19 11:15:00,49.4,32.0,30.14,NW,325,2.0,3.0,51,0.00,,,0.00,Wunderground v.1.15,2013-01-19 17:15:00,
2013-01-19 11:21:00,49.6,31.2,30.14,NW,325,2.0,2.0,49,0.00,,,0.00,Wunderground v.1.15,2013-01-19 17:21:00,
2013-01-19 11:26:00,49.7,31.8,30.13,West,261,2.0,4.0,50,0.00,,,0.00,Wunderground v.1.15,2013-01-19 17:26:00,
2013-01-19 11:31:00,50.0,31.6,30.13,SSE,168,2.0,5.0,49,0.00,,,0.00,Wunderground v.1.15,2013-01-19 17:31:00,
2013-01-19 11:37:00,50.6,31.1,30.12,South,182,3.0,5.0,47,0.00,,,0.00,Wunderground v.1.15,2013-01-19 17:37:00,
2013-01-19 11:43:00,51.4,31.8,30.12,SSE,166,5.0,7.0,47,0.00,,,0.00,Wunderground v.1.15,2013-01-19 17:43:00,
2013-01-19 11:49:00,52.2,30.9,30.11,SSE,159,5.0,7.0,44,0.00,,,0.00,Wunderground v.1.15,2013-01-19 17:49:00,
2013-01-19 11:55:00,52.8,31.5,30.11,SSE,163,5.0,5.0,44,0.00,,,0.00,Wunderground v.1.15,2013-01-19 17:55:00,
2013-01-19 12:00:00,53.6,31.6,30.12,West,261,3.0,3.0,43,0.00,,,0.00,Wunderground v.1.15,2013-01-19 18:00:00,
2013-01-19 12:05:00,53.9,31.3,30.12,NW,306,3.0,5.0,42,0.00,,,0.00,Wunderground v.1.15,2013-01-19 18:05:00,
2013-01-19 12:12:00,54.4,32.3,30.12,NNW,327,5.0,5.0,43,0.00,,,0.00,Wunderground v.1.15,2013-01-19 18:12:00,
2013-01-19 12:17:00,54.6,31.9,30.12,NNW,336,6.0,9.0,42,0.00,,,0.00,Wunderground v.1.15,2013-01-19 18:17:00,
2013-01-19 12:22:00,54.6,31.9,30.12,NW,323,5.0,6.0,42,0.00,,,0.00,Wunderground v.1.15,2013-01-19 18:22:00,
2013-01-19 12:27:00,54.8,32.7,30.12,NNW,328,6.0,9.0,43,0.00,,,0.00,Wunderground v.1.15,2013-01-19 18:27:00,
2013-01-19 12:33:00,55.1,33.0,30.12,WNW,302,6.0,7.0,43,0.00,,,0.00,Wunderground v.1.15,2013-01-19 18:33:00,
2013-01-19 12:39:00,55.3,32.0,30.12,NNW,330,6.0,8.0,41,0.00,,,0.00,Wunderground v.1.15,2013-01-19 18:39:00,
2013-01-19 12:45:00,55.9,33.1,30.12,NW,316,6.0,11.0,42,0.00,,,0.00,Wunderground v.1.15,2013-01-19 18:45:00,
2013-01-19 12:50:00,56.2,31.5,30.11,NW,314,7.0,7.0,39,0.00,,,0.00,Wunderground v.1.15,2013-01-19 18:50:00,
2013-01-19 12:55:00,56.5,31.2,30.11,NNW,333,7.0,8.0,38,0.00,,,0.00,Wunderground v.1.15,2013-01-19 18:55:00,
2013-01-19 13:00:00,56.8,30.8,30.11,NNW,329,5.0,5.0,37,0.00,,,0.00,Wunderground v.1.15,2013-01-19 19:00:00,
2013-01-19 13:05:00,57.0,31.0,30.11,NW,321,6.0,10.0,37,0.00,,,0.00,Wunderground v.1.15,2013-01-19 19:05:00,
2013-01-19 13:10:00,57.3,31.2,30.11,NW,326,6.0,6.0,37,0.00,,,0.00,Wunderground v.1.15,2013-01-19 19:10:00,
2013-01-19 13:15:00,57.7,31.6,30.12,NNW,333,7.0,9.0,37,0.00,,,0.00,Wunderground v.1.15,2013-01-19 19:15:00,
2013-01-19 13:21:00,57.6,31.5,30.11,NNW,338,8.0,8.0,37,0.00,,,0.00,Wunderground v.1.15,2013-01-19 19:21:00,
2013-01-19 13:30:00,58.3,30.0,30.11,North,9,7.0,7.0,34,0.00,,,0.00,Wunderground v.1.15,2013-01-19 19:30:00,
2013-01-19 13:37:00,58.6,30.3,30.11,NNW,336,7.0,8.0,34,0.00,,,0.00,Wunderground v.1.15,2013-01-19 19:37:00,
2013-01-19 13:43:00,59.1,30.0,30.11,NW,324,5.0,9.0,33,0.00,,,0.00,Wunderground v.1.15,2013-01-19 19:43:00,
2013-01-19 13:48:00,59.3,29.4,30.11,NW,326,6.0,9.0,32,0.00,,,0.00,Wunderground v.1.15,2013-01-19 19:48:00,
2013-01-19 13:54:00,59.5,28.8,30.11,NNW,342,6.0,7.0,31,0.00,,,0.00,Wunderground v.1.15,2013-01-19 19:54:00,
2013-01-19 13:59:00,59.6,28.1,30.11,North,360,7.0,11.0,30,0.00,,,0.00,Wunderground v.1.15,2013-01-19 19:59:00,
2013-01-19 14:04:00,59.4,27.9,30.11,NNW,344,9.0,11.0,30,0.00,,,0.00,Wunderground v.1.15,2013-01-19 20:04:00,
2013-01-19 14:10:00,59.5,29.6,30.11,North,9,9.0,10.0,32,0.00,,,0.00,Wunderground v.1.15,2013-01-19 20:10:00,
2013-01-19 14:15:00,59.7,28.2,30.10,NNE,15,8.0,10.0,30,0.00,,,0.00,Wunderground v.1.15,2013-01-19 20:15:00,
2013-01-19 14:22:00,60.2,28.6,30.10,North,355,6.0,8.0,30,0.00,,,0.00,Wunderground v.1.15,2013-01-19 20:22:00,
2013-01-19 14:28:00,60.5,28.9,30.10,North,360,7.0,10.0,30,0.00,,,0.00,Wunderground v.1.15,2013-01-19 20:28:00,
2013-01-19 14:34:00,60.7,28.2,30.10,North,9,8.0,10.0,29,0.00,,,0.00,Wunderground v.1.15,2013-01-19 20:34:00,
2013-01-19 14:39:00,61.2,28.7,30.11,NNW,346,8.0,10.0,29,0.00,,,0.00,Wunderground v.1.15,2013-01-19 20:39:00,
2013-01-19 14:48:00,61.6,29.0,30.11,North,349,7.0,9.0,29,0.00,,,0.00,Wunderground v.1.15,2013-01-19 20:48:00,
2013-01-19 14:54:00,61.8,28.3,30.11,NNW,338,8.0,10.0,28,0.00,,,0.00,Wunderground v.1.15,2013-01-19 20:54:00,
2013-01-19 14:59:00,62.0,28.5,30.11,NNE,22,8.0,10.0,28,0.00,,,0.00,Wunderground v.1.15,2013-01-19 20:59:00,
2013-01-19 15:05:00,62.0,28.5,30.11,NNE,20,8.0,8.0,28,0.00,,,0.00,Wunderground v.1.15,2013-01-19 21:05:00,
2013-01-19 15:10:00,62.3,27.9,30.12,NNE,16,9.0,11.0,27,0.00,,,0.00,Wunderground v.1.15,2013-01-19 21:10:00,
2013-01-19 15:16:00,62.4,27.9,30.12,North,355,10.0,12.0,27,0.00,,,0.00,Wunderground v.1.15,2013-01-19 21:16:00,
2013-01-19 15:22:00,62.4,27.9,30.12,North,360,10.0,12.0,27,0.00,,,0.00,Wunderground v.1.15,2013-01-19 21:22:00,
2013-01-19 15:28:00,62.5,28.0,30.13,NNE,13,11.0,14.0,27,0.00,,,0.00,Wunderground v.1.15,2013-01-19 21:28:00,
2013-01-19 15:34:00,62.2,27.8,30.12,NNE,15,12.0,13.0,27,0.00,,,0.00,Wunderground v.1.15,2013-01-19 21:34:00,
2013-01-19 15:42:00,62.3,26.9,30.12,NNE,19,11.0,12.0,26,0.00,,,0.00,Wunderground v.1.15,2013-01-19 21:42:00,
2013-01-19 15:47:00,62.4,27.9,30.12,NNE,31,9.0,12.0,27,0.00,,,0.00,Wunderground v.1.15,2013-01-19 21:47:00,
2013-01-19 15:53:00,62.3,27.9,30.13,North,360,10.0,10.0,27,0.00,,,0.00,Wunderground v.1.15,2013-01-19 21:53:00,
2013-01-19 15:58:00,62.5,28.0,30.13,NNE,13,10.0,12.0,27,0.00,,,0.00,Wunderground v.1.15,2013-01-19 21:58:00,
2013-01-19 16:04:00,62.6,28.1,30.13,NNE,12,9.0,11.0,27,0.00,,,0.00,Wunderground v.1.15,2013-01-19 22:04:00,
2013-01-19 16:10:00,62.7,27.3,30.13,North,355,9.0,9.0,26,0.00,,,0.00,Wunderground v.1.15,2013-01-19 22:10:00,
2013-01-19 16:16:00,62.8,28.3,30.13,North,9,9.0,11.0,27,0.00,,,0.00,Wunderground v.1.15,2013-01-19 22:16:00,
2013-01-19 16:21:00,62.8,28.3,30.14,North,9,9.0,11.0,27,0.00,,,0.00,Wunderground v.1.15,2013-01-19 22:21:00,
2013-01-19 16:28:00,62.4,27.0,30.14,North,9,11.0,13.0,26,0.00,,,0.00,Wunderground v.1.15,2013-01-19 22:28:00,
2013-01-19 16:34:00,62.2,26.9,30.14,NNE,13,11.0,12.0,26,0.00,,,0.00,Wunderground v.1.15,2013-01-19 22:34:00,
2013-01-19 16:40:00,61.8,26.5,30.14,North,9,10.0,12.0,26,0.00,,,0.00,Wunderground v.1.15,2013-01-19 22:40:00,
2013-01-19 16:47:00,61.6,26.3,30.14,North,9,10.0,12.0,26,0.00,,,0.00,Wunderground v.1.15,2013-01-19 22:47:00,
2013-01-19 16:53:00,61.3,27.0,30.15,North,360,9.0,11.0,27,0.00,,,0.00,Wunderground v.1.15,2013-01-19 22:53:00,
2013-01-19 16:59:00,61.0,26.7,30.15,North,9,8.0,11.0,27,0.00,,,0.00,Wunderground v.1.15,2013-01-19 22:59:00,
2013-01-19 17:04:00,60.7,27.4,30.15,NNE,16,7.0,8.0,28,0.00,,,0.00,Wunderground v.1.15,2013-01-19 23:04:00,
2013-01-19 17:10:00,60.2,26.9,30.16,NNE,15,7.0,7.0,28,0.00,,,0.00,Wunderground v.1.15,2013-01-19 23:10:00,
2013-01-19 17:17:00,59.3,27.8,30.16,NNE,19,6.0,7.0,30,0.00,,,0.00,Wunderground v.1.15,2013-01-19 23:17:00,
2013-01-19 17:23:00,58.6,27.2,30.16,NNE,19,5.0,6.0,30,0.00,,,0.00,Wunderground v.1.15,2013-01-19 23:23:00,
2013-01-19 17:29:00,58.4,27.9,30.16,NNE,19,4.0,6.0,31,0.00,,,0.00,Wunderground v.1.15,2013-01-19 23:29:00,
2013-01-19 17:35:00,57.9,27.4,30.16,NNE,19,4.0,5.0,31,0.00,,,0.00,Wunderground v.1.15,2013-01-19 23:35:00,
2013-01-19 17:41:00,57.6,27.2,30.16,NNE,14,4.0,4.0,31,0.00,,,0.00,Wunderground v.1.15,2013-01-19 23:41:00,
2013-01-19 17:47:00,57.2,26.8,30.17,NNE,15,4.0,5.0,31,0.00,,,0.00,Wunderground v.1.15,2013-01-19 23:47:00,
2013-01-19 17:52:00,56.7,27.1,30.17,NNE,13,5.0,7.0,32,0.00,,,0.00,Wunderground v.1.15,2013-01-19 23:52:00,
2013-01-19 17:57:00,56.2,26.7,30.17,North,10,6.0,7.0,32,0.00,,,0.00,Wunderground v.1.15,2013-01-19 23:57:00,
2013-01-19 18:03:00,55.8,27.1,30.18,NNE,19,6.0,6.0,33,0.00,,,0.00,Wunderground v.1.15,2013-01-20 00:03:00,
2013-01-19 18:09:00,55.4,26.7,30.18,NNE,14,5.0,7.0,33,0.00,,,0.00,Wunderground v.1.15,2013-01-20 00:09:00,
2013-01-19 18:15:00,54.9,27.0,30.18,NNE,18,5.0,5.0,34,0.00,,,0.00,Wunderground v.1.15,2013-01-20 00:15:00,
2013-01-19 18:24:00,53.9,26.8,30.18,North,9,4.0,5.0,35,0.00,,,0.00,Wunderground v.1.15,2013-01-20 00:24:00,
2013-01-19 18:29:00,53.5,27.2,30.18,North,9,6.0,9.0,36,0.00,,,0.00,Wunderground v.1.15,2013-01-20 00:29:00,
2013-01-19 18:35:00,53.7,27.4,30.19,North,10,8.0,9.0,36,0.00,,,0.00,Wunderground v.1.15,2013-01-20 00:35:00,
2013-01-19 18:40:00,53.7,27.4,30.19,NNE,17,8.0,8.0,36,0.00,,,0.00,Wunderground v.1.15,2013-01-20 00:40:00,
2013-01-19 18:45:00,53.9,27.5,30.19,NNE,22,7.0,9.0,36,0.00,,,0.00,Wunderground v.1.15,2013-01-20 00:45:00,
2013-01-19 18:52:00,54.2,27.1,30.19,North,9,7.0,7.0,35,0.00,,,0.00,Wunderground v.1.15,2013-01-20 00:52:00,
2013-01-19 18:57:00,54.2,27.1,30.20,North,9,7.0,9.0,35,0.00,,,0.00,Wunderground v.1.15,2013-01-20 00:57:00,
2013-01-19 19:03:00,54.4,27.3,30.20,North,11,7.0,8.0,35,0.00,,,0.00,Wunderground v.1.15,2013-01-20 01:03:00,
2013-01-19 19:09:00,54.2,27.8,30.20,NNE,22,6.0,8.0,36,0.00,,,0.00,Wunderground v.1.15,2013-01-20 01:09:00,
2013-01-19 19:15:00,53.5,27.2,30.20,NNE,17,5.0,6.0,36,0.00,,,0.00,Wunderground v.1.15,2013-01-20 01:15:00,
2013-01-19 19:22:00,52.5,27.6,30.20,NNE,17,5.0,6.0,38,0.00,,,0.00,Wunderground v.1.15,2013-01-20 01:22:00,
2013-01-19 19:28:00,52.4,27.5,30.21,NNE,17,4.0,6.0,38,0.00,,,0.00,Wunderground v.1.15,2013-01-20 01:28:00,
2013-01-19 19:33:00,50.3,26.9,30.21,NNE,17,3.0,4.0,40,0.00,,,0.00,Wunderground v.1.15,2013-01-20 01:33:00,
2013-01-19 19:39:00,49.0,26.9,30.22,NNE,17,3.0,4.0,42,0.00,,,0.00,Wunderground v.1.15,2013-01-20 01:39:00,
2013-01-19 19:45:00,48.9,27.4,30.22,North,360,5.0,6.0,43,0.00,,,0.00,Wunderground v.1.15,2013-01-20 01:45:00,
2013-01-19 19:52:00,48.3,27.4,30.22,North,360,5.0,5.0,44,0.00,,,0.00,Wunderground v.1.15,2013-01-20 01:52:00,
2013-01-19 19:57:00,47.9,27.0,30.22,North,360,5.0,5.0,44,0.00,,,0.00,Wunderground v.1.15,2013-01-20 01:57:00,
2013-01-19 20:02:00,47.8,26.9,30.23,North,360,4.0,4.0,44,0.00,,,0.00,Wunderground v.1.15,2013-01-20 02:02:00,
2013-01-19 20:09:00,47.0,26.7,30.23,North,360,4.0,6.0,45,0.00,,,0.00,Wunderground v.1.15,2013-01-20 02:09:00,
2013-01-19 20:14:00,46.9,27.2,30.23,North,360,5.0,5.0,46,0.00,,,0.00,Wunderground v.1.15,2013-01-20 02:14:00,
2013-01-19 20:20:00,47.2,26.9,30.23,North,349,5.0,6.0,45,0.00,,,0.00,Wunderground v.1.15,2013-01-20 02:20:00,
2013-01-19 20:25:00,47.5,27.2,30.23,NNW,344,6.0,6.0,45,0.00,,,0.00,Wunderground v.1.15,2013-01-20 02:25:00,
2013-01-19 20:31:00,47.4,26.6,30.23,North,350,6.0,7.0,44,0.00,,,0.00,Wunderground v.1.15,2013-01-20 02:31:00,
2013-01-19 20:37:00,47.7,26.8,30.23,North,355,6.0,8.0,44,0.00,,,0.00,Wunderground v.1.15,2013-01-20 02:37:00,
2013-01-19 20:43:00,47.7,26.8,30.24,North,350,7.0,8.0,44,0.00,,,0.00,Wunderground v.1.15,2013-01-20 02:43:00,
2013-01-19 20:49:00,47.3,27.0,30.24,North,351,7.0,7.0,45,0.00,,,0.00,Wunderground v.1.15,2013-01-20 02:49:00,
2013-01-19 20:54:00,47.0,26.7,30.24,North,355,7.0,7.0,45,0.00,,,0.00,Wunderground v.1.15,2013-01-20 02:54:00,
2013-01-19 21:00:00,46.8,26.6,30.24,North,355,6.0,6.0,45,0.00,,,0.00,Wunderground v.1.15,2013-01-20 03:00:00,
2013-01-19 21:05:00,47.2,26.9,30.24,North,9,6.0,7.0,45,0.00,,,0.00,Wunderground v.1.15,2013-01-20 03:05:00,
2013-01-19 21:10:00,47.6,26.7,30.24,North,355,6.0,9.0,44,0.00,,,0.00,Wunderground v.1.15,2013-01-20 03:10:00,
2013-01-19 21:16:00,48.3,26.8,30.24,North,9,7.0,9.0,43,0.00,,,0.00,Wunderground v.1.15,2013-01-20 03:16:00,
2013-01-19 21:22:00,49.1,27.0,30.24,NNE,16,7.0,7.0,42,0.00,,,0.00,Wunderground v.1.15,2013-01-20 03:22:00,
2013-01-19 21:28:00,49.2,26.5,30.24,NNE,15,5.0,7.0,41,0.00,,,0.00,Wunderground v.1.15,2013-01-20 03:28:00,
2013-01-19 21:34:00,48.6,26.5,30.24,NNE,16,5.0,5.0,42,0.00,,,0.00,Wunderground v.1.15,2013-01-20 03:34:00,
2013-01-19 21:39:00,47.9,26.5,30.24,NNE,16,4.0,5.0,43,0.00,,,0.00,Wunderground v.1.15,2013-01-20 03:39:00,
2013-01-19 21:46:00,47.6,26.2,30.24,NNE,16,4.0,4.0,43,0.00,,,0.00,Wunderground v.1.15,2013-01-20 03:46:00,
2013-01-19 21:52:00,47.5,26.6,30.24,NNE,16,3.0,3.0,44,0.00,,,0.00,Wunderground v.1.15,2013-01-20 03:52:00,
2013-01-19 21:58:00,46.7,25.9,30.24,NNE,16,1.0,3.0,44,0.00,,,0.00,Wunderground v.1.15,2013-01-20 03:58:00,
2013-01-19 22:04:00,45.6,26.0,30.25,NNE,16,2.0,3.0,46,0.00,,,0.00,Wunderground v.1.15,2013-01-20 04:04:00,
2013-01-19 22:10:00,44.9,25.9,30.25,NNE,16,2.0,2.0,47,0.00,,,0.00,Wunderground v.1.15,2013-01-20 04:10:00,
2013-01-19 22:16:00,44.4,25.9,30.25,NNE,16,2.0,2.0,48,0.00,,,0.00,Wunderground v.1.15,2013-01-20 04:16:00,
2013-01-19 22:22:00,44.0,25.5,30.25,NNE,16,1.0,2.0,48,0.00,,,0.00,Wunderground v.1.15,2013-01-20 04:22:00,
2013-01-19 22:28:00,44.3,25.8,30.25,NNE,16,2.0,3.0,48,0.00,,,0.00,Wunderground v.1.15,2013-01-20 04:28:00,
2013-01-19 22:34:00,44.4,25.9,30.25,NNE,16,3.0,3.0,48,0.00,,,0.00,Wunderground v.1.15,2013-01-20 04:34:00,
2013-01-19 22:41:00,44.2,25.7,30.25,NNE,16,2.0,3.0,48,0.00,,,0.00,Wunderground v.1.15,2013-01-20 04:41:00,
2013-01-19 22:47:00,44.4,25.9,30.26,NNE,16,2.0,3.0,48,0.00,,,0.00,Wunderground v.1.15,2013-01-20 04:47:00,
2013-01-19 22:52:00,44.4,25.9,30.26,NNE,16,2.0,3.0,48,0.00,,,0.00,Wunderground v.1.15,2013-01-20 04:52:00,
2013-01-19 22:58:00,44.0,25.5,30.26,NNE,16,2.0,4.0,48,0.00,,,0.00,Wunderground v.1.15,2013-01-20 04:58:00,
2013-01-19 23:02:00,44.4,26.4,30.26,NNE,16,3.0,4.0,49,0.00,,,0.00,Wunderground v.1.15,2013-01-20 05:02:00,
2013-01-19 23:05:00,44.9,26.4,30.26,NNE,16,4.0,6.0,48,0.00,,,0.00,Wunderground v.1.15,2013-01-20 05:05:00,
2013-01-19 23:09:00,45.2,26.1,30.26,NNE,16,5.0,6.0,47,0.00,,,0.00,Wunderground v.1.15,2013-01-20 05:09:00,
2013-01-19 23:11:00,45.3,26.2,30.26,NNE,16,5.0,5.0,47,0.00,,,0.00,Wunderground v.1.15,2013-01-20 05:11:00,
2013-01-19 23:16:00,45.2,26.1,30.26,NNE,16,5.0,6.0,47,0.00,,,0.00,Wunderground v.1.15,2013-01-20 05:16:00,
2013-01-19 23:21:00,44.7,25.7,30.26,North,9,5.0,6.0,47,0.00,,,0.00,Wunderground v.1.15,2013-01-20 05:21:00,
2013-01-19 23:27:00,44.6,26.1,30.26,NNE,14,5.0,6.0,48,0.00,,,0.00,Wunderground v.1.15,2013-01-20 05:27:00,
2013-01-19 23:33:00,44.6,26.1,30.26,North,9,5.0,6.0,48,0.00,,,0.00,Wunderground v.1.15,2013-01-20 05:33:00,
2013-01-19 23:39:00,44.2,25.7,30.26,North,9,5.0,6.0,48,0.00,,,0.00,Wunderground v.1.15,2013-01-20 05:39:00,
2013-01-19 23:45:00,44.2,26.2,30.26,North,9,5.0,6.0,49,0.00,,,0.00,Wunderground v.1.15,2013-01-20 05:45:00,
2013-01-19 23:51:00,44.2,26.2,30.26,North,9,5.0,5.0,49,0.00,,,0.00,Wunderground v.1.15,2013-01-20 05:51:00,
2013-01-19 23:56:00,44.4,26.4,30.26,NNE,13,5.0,6.0,49,0.00,,,0.00,Wunderground v.1.15,2013-01-20 05:56:00,